GW5972 Weather Reports


time (UTC)temp
F
wind
direction
speed
knots
gust
knots
rain 1hr
in
rain 24hr
in
rain mn
in
humidity
%
barometer
mb
20260510214336 49 88 0.0 0.9 0.00 0.00 0.00 73 1009.0
20260510213836 49 89 0.0 0.0 0.00 0.00 0.00 73 1009.0
20260510213336 49 110 0.0 0.9 0.00 0.00 0.00 72 1009.0
20260510212836 49 74 0.9 1.7 0.00 0.00 0.00 71 1009.0
20260510212337 49 77 0.0 0.0 0.00 0.00 0.00 71 1009.0
20260510211836 49 77 0.0 0.9 0.00 0.00 0.00 70 1009.0
20260510211339 48 92 1.7 2.6 0.00 0.00 0.00 69 1009.0
20260510210836 49 46 0.0 0.9 0.00 0.00 0.00 68 1009.0
20260510210336 49 35 0.0 0.0 0.00 0.00 0.00 67 1009.0
20260510205836 49 12 0.0 1.7 0.00 0.00 0.00 67 1009.0
20260510205337 48 48 0.0 0.0 0.00 0.00 0.00 66 1010.0
20260510204837 48 58 0.0 0.9 0.00 0.00 0.00 66 1009.0
20260510204336 48 33 0.0 0.0 0.00 0.00 0.00 65 1010.0
20260510203837 48 33 0.0 0.0 0.00 0.00 0.00 64 1010.0
20260510203336 48 33 0.9 2.6 0.00 0.00 0.00 64 1010.0
20260510202836 48 78 0.0 0.0 0.00 0.00 0.00 64 1010.0
20260510202337 48 78 0.0 0.9 0.00 0.00 0.00 65 1010.0
20260510201836 49 78 0.0 0.0 0.00 0.00 0.00 67 1010.0
20260510201336 49 78 0.0 0.0 0.00 0.00 0.00 67 1010.0
20260510200837 49 78 0.0 0.9 0.00 0.00 0.00 68 1010.0
20260510200337 49 77 0.0 0.9 0.00 0.00 0.00 69 1010.0
20260510195836 49 77 0.0 0.0 0.00 0.00 0.00 69 1010.0
20260510195336 49 77 0.0 0.0 0.00 0.00 0.00 68 1010.0
20260510194836 50 51 0.0 1.7 0.00 0.00 0.00 68 1010.0
20260510194336 50 23 0.0 0.9 0.00 0.00 0.00 68 1010.0
20260510193836 50 15 0.0 1.7 0.00 0.00 0.00 67 1010.0
20260510193336 50 60 0.0 0.9 0.00 0.00 0.00 67 1010.0
20260510192837 50 31 0.0 0.9 0.00 0.00 0.00 66 1010.0
20260510192337 50 61 0.0 0.9 0.00 0.00 0.00 66 1010.0
20260510191836 51 86 0.0 0.9 0.00 0.00 0.00 66 1010.0
20260510191336 51 32 0.0 1.7 0.00 0.00 0.00 66 1010.0
20260510190837 51 68 0.0 0.9 0.00 0.00 0.00 65 1010.0
20260510190336 51 259 0.0 0.9 0.00 0.00 0.00 66 1010.0
20260510185836 51 11 0.9 6.1 0.00 0.00 0.00 65 1010.0
20260510185336 51 31 0.0 0.0 0.00 0.00 0.00 65 1010.0
20260510184836 51 78 0.9 0.9 0.00 0.00 0.00 64 1010.0
20260510184336 51 79 0.0 0.9 0.00 0.00 0.00 64 1010.0
20260510183836 51 102 1.7 1.7 0.00 0.00 0.00 64 1010.0
20260510183336 51 40 1.7 5.2 0.00 0.00 0.00 63 1010.0
20260510182836 51 45 0.9 2.6 0.00 0.00 0.00 64 1010.0
20260510182337 52 67 0.9 2.6 0.00 0.00 0.00 61 1010.0
20260510181839 52 95 0.0 0.9 0.00 0.00 0.00 59 1010.0
20260510181339 52 43 0.0 1.7 0.00 0.00 0.00 56 1010.0
20260510180837 52 72 0.0 0.9 0.00 0.00 0.00 56 1010.0
20260510180336 52 51 0.0 4.3 0.00 0.00 0.00 55 1010.0
20260510175836 52 356 2.6 5.2 0.00 0.00 0.00 55 1011.0
20260510175336 52 61 0.0 2.6 0.00 0.00 0.00 55 1010.0
20260510174836 52 46 0.0 0.9 0.00 0.00 0.00 56 1011.0
20260510174336 52 33 0.9 6.1 0.00 0.00 0.00 54 1010.0
20260510173836 53 89 0.9 5.2 0.00 0.00 0.00 55 1010.0
20260510173336 53 281 0.0 2.6 0.00 0.00 0.00 58 1011.0
20260510172836 53 32 1.7 4.3 0.00 0.00 0.00 56 1011.0
20260510172336 53 45 0.9 2.6 0.00 0.00 0.00 56 1011.0
20260510171836 53 32 0.0 1.7 0.00 0.00 0.00 56 1011.0
20260510171336 53 43 0.0 2.6 0.00 0.00 0.00 54 1011.0
20260510170836 54 51 1.7 1.7 0.00 0.00 0.00 54 1011.0
20260510170337 54 19 0.0 0.9 0.00 0.00 0.00 56 1011.0
20260510165837 54 51 1.7 4.3 0.00 0.00 0.00 56 1011.0
20260510165336 54 48 0.0 1.7 0.00 0.00 0.00 55 1011.0
20260510164842 54 54 0.9 2.6 0.00 0.00 0.00 52 1011.0
20260510164337 54 48 0.9 1.7 0.00 0.00 0.00 52 1011.0
20260510163836 54 78 0.9 2.6 0.00 0.00 0.00 49 1011.0
20260510163336 54 298 0.9 1.7 0.00 0.00 0.00 49 1011.0
20260510162837 54 358 0.9 1.7 0.00 0.00 0.00 51 1012.0
20260510162336 54 342 1.7 2.6 0.00 0.00 0.00 49 1012.0
20260510161837 54 88 1.7 2.6 0.00 0.00 0.00 51 1012.0
20260510161337 54 53 0.0 5.2 0.00 0.00 0.00 50 1012.0
20260510160837 55 34 0.0 2.6 0.00 0.00 0.00 52 1012.0
20260510160337 55 71 0.9 0.9 0.00 0.00 0.00 53 1012.0
20260510155836 55 73 1.7 1.7 0.00 0.00 0.00 52 1012.0
20260510155337 55 100 0.9 0.9 0.00 0.00 0.00 55 1012.0
20260510154836 55 105 0.9 2.6 0.00 0.00 0.00 52 1012.0
20260510154338 55 13 0.9 2.6 0.00 0.00 0.00 53 1012.0
20260510153836 55 290 1.7 2.6 0.00 0.00 0.00 54 1012.0
20260510153337 55 8 1.7 2.6 0.00 0.00 0.00 56 1012.0
20260510152836 55 89 0.0 1.7 0.00 0.00 0.00 55 1012.0
20260510152336 56 68 1.7 2.6 0.00 0.00 0.00 52 1012.0
20260510151836 55 55 0.9 1.7 0.00 0.00 0.00 54 1012.0
20260510151337 55 68 0.9 0.9 0.00 0.00 0.00 55 1012.0
20260510150836 55 83 1.7 4.3 0.00 0.00 0.00 52 1012.0
20260510150336 55 36 0.9 6.1 0.00 0.00 0.00 57 1013.0
20260510145836 55 73 1.7 1.7 0.00 0.00 0.00 54 1012.0
20260510145337 56 357 1.7 4.3 0.00 0.00 0.00 54 1013.0
20260510144836 56 23 3.5 5.2 0.00 0.00 0.00 53 1013.0
20260510144336 56 333 0.9 4.3 0.00 0.00 0.00 54 1012.0
20260510143836 56 68 0.0 2.6 0.00 0.00 0.00 56 1012.0
20260510143337 57 50 1.7 4.3 0.00 0.00 0.00 53 1013.0
20260510142836 57 86 0.0 0.9 0.00 0.00 0.00 54 1013.0
20260510142336 58 72 1.7 5.2 0.00 0.00 0.00 54 1013.0
20260510141836 59 66 0.9 2.6 0.00 0.00 0.00 52 1013.0
20260510141336 58 73 0.9 1.7 0.00 0.00 0.00 53 1013.0
20260510140837 59 73 0.9 1.7 0.00 0.00 0.00 52 1013.0
20260510140337 59 13 0.9 2.6 0.00 0.00 0.00 53 1013.0
20260510135837 59 27 0.9 5.2 0.00 0.00 0.00 53 1013.0
20260510135337 59 32 0.9 5.2 0.00 0.00 0.00 52 1013.0
20260510134837 59 35 1.7 5.2 0.00 0.00 0.00 50 1013.0
20260510134337 59 8 0.9 1.7 0.00 0.00 0.00 50 1013.0
20260510133836 59 39 1.7 2.6 0.00 0.00 0.00 50 1013.0
20260510133336 58 92 0.9 1.7 0.00 0.00 0.00 54 1013.0
20260510132836 58 66 0.9 1.7 0.00 0.00 0.00 54 1013.0
20260510132337 59 56 1.7 2.6 0.00 0.00 0.00 51 1013.0
20260510131836 59 48 0.9 6.1 0.00 0.00 0.00 53 1013.0
20260510131337 59 75 0.9 6.1 0.00 0.00 0.00 53 1013.0
20260510130836 59 50 0.9 2.6 0.00 0.00 0.00 54 1013.0
20260510130338 59 98 0.9 1.7 0.00 0.00 0.00 52 1013.0
20260510125836 59 49 2.6 2.6 0.00 0.00 0.00 52 1013.0
20260510125336 57 33 0.0 1.7 0.00 0.00 0.00 54 1013.0
20260510124836 57 8 0.9 2.6 0.00 0.00 0.00 53 1014.0
20260510124337 57 68 2.6 5.2 0.00 0.00 0.00 53 1013.0
20260510123836 57 347 0.9 1.7 0.00 0.00 0.00 53 1014.0
20260510123337 58 64 0.0 2.6 0.00 0.00 0.00 53 1014.0
20260510122836 58 58 0.0 0.9 0.00 0.00 0.00 43 1014.0
20260510122336 60 62 0.0 1.7 0.00 0.00 0.00 48 1014.0
20260510121836 59 32 0.0 0.0 0.00 0.00 0.00 42 1014.0
20260510121337 60 25 1.7 5.2 0.00 0.00 0.00 37 1014.0
20260510120836 61 36 0.9 0.9 0.00 0.00 0.00 39 1014.0
20260510120337 59 131 0.0 0.9 0.00 0.00 0.00 42 1014.0
20260510115836 59 169 0.0 2.6 0.00 0.00 0.00 44 1014.0
20260510115336 59 287 0.9 0.9 0.00 0.00 0.00 40 1014.0
20260510114836 58 343 0.0 0.9 0.00 0.00 0.00 42 1014.0
20260510114336 58 318 0.0 0.9 0.00 0.00 0.00 43 1014.0
20260510113837 58 314 0.0 0.9 0.00 0.00 0.00 42 1014.0
20260510113336 58 41 0.9 0.9 0.00 0.00 0.00 42 1014.0
20260510112836 59 30 0.0 0.9 0.00 0.00 0.00 42 1014.0
20260510112336 59 355 0.0 0.9 0.00 0.00 0.00 41 1014.0
20260510111837 60 13 0.9 0.9 0.00 0.00 0.00 42 1014.0
20260510111336 60 69 0.0 0.9 0.00 0.00 0.00 42 1014.0
20260510110836 59 63 0.0 0.9 0.00 0.00 0.00 42 1014.0
20260510110336 58 40 0.0 0.9 0.00 0.00 0.00 43 1014.0
20260510105837 59 36 0.9 1.7 0.00 0.00 0.00 41 1014.0
20260510104907 59 25 0.0 0.9 0.00 0.00 0.00 42 1015.0
20260510104336 59 46 0.0 0.9 0.00 0.00 0.00 44 1015.0
20260510103837 58 48 0.0 0.0 0.00 0.00 0.00 45 1015.0
20260510103336 58 9 0.9 0.9 0.00 0.00 0.00 45 1015.0
20260510102836 57 24 0.9 0.9 0.00 0.00 0.00 45 1015.0
20260510102338 58 10 0.0 0.9 0.00 0.00 0.00 45 1015.0
20260510101836 57 20 0.0 0.9 0.00 0.00 0.00 46 1015.0
20260510101336 56 8 0.9 1.7 0.00 0.00 0.00 47 1015.0
20260510100837 56 42 0.9 1.7 0.00 0.00 0.00 47 1015.0
20260510100336 56 36 0.0 1.7 0.00 0.00 0.00 48 1015.0
20260510095836 56 33 0.0 2.6 0.00 0.00 0.00 48 1015.0
20260510095336 56 29 0.9 0.9 0.00 0.00 0.00 48 1015.0
20260510094836 55 21 0.0 0.9 0.00 0.00 0.00 50 1015.0
20260510094336 55 55 0.0 1.7 0.00 0.00 0.00 52 1015.0
20260510093836 53 45 0.9 0.9 0.00 0.00 0.00 52 1016.0
20260510093336 52 63 0.9 1.7 0.00 0.00 0.00 55 1015.0
20260510092836 51 25 0.0 1.7 0.00 0.00 0.00 57 1015.0
20260510092336 51 34 0.9 1.7 0.00 0.00 0.00 56 1015.0
20260510091836 51 36 0.0 1.7 0.00 0.00 0.00 57 1016.0
20260510091336 51 41 0.0 1.7 0.00 0.00 0.00 57 1016.0
20260510090836 51 28 1.7 2.6 0.00 0.00 0.00 59 1016.0
20260510090336 51 36 0.0 1.7 0.00 0.00 0.00 61 1016.0
20260510085837 50 34 0.9 0.9 0.00 0.00 0.00 61 1016.0
20260510085336 50 34 0.9 0.9 0.00 0.00 0.00 61 1016.0
20260510084836 50 34 0.9 0.9 0.00 0.00 0.00 62 1016.0
20260510084336 50 30 0.9 0.9 0.00 0.00 0.00 63 1016.0
20260510083836 50 36 0.9 1.7 0.00 0.00 0.00 63 1016.0
20260510083336 50 35 0.0 0.9 0.00 0.00 0.00 64 1016.0
20260510082837 50 45 0.0 0.9 0.00 0.00 0.00 64 1016.0
20260510082336 49 37 0.0 0.0 0.00 0.00 0.00 65 1016.0
20260510081836 49 37 0.0 0.9 0.00 0.00 0.00 65 1016.0
20260510081336 49 37 0.9 1.7 0.00 0.00 0.00 64 1016.0
20260510080837 48 32 0.9 1.7 0.00 0.00 0.00 67 1016.0
20260510080336 48 16 0.9 0.9 0.00 0.00 0.00 66 1016.0
20260510075836 48 19 0.0 0.9 0.00 0.00 0.00 68 1016.0
20260510075337 47 40 0.9 0.9 0.00 0.00 0.00 69 1015.0
20260510074836 47 40 0.9 1.7 0.00 0.00 0.00 68 1016.0
20260510074336 47 31 0.9 1.7 0.00 0.00 0.00 69 1016.0
20260510073836 47 24 0.0 0.0 0.00 0.00 0.00 72 1016.0
20260510073336 46 24 0.0 0.9 0.00 0.00 0.00 74 1016.0
20260510072839 46 24 0.0 0.0 0.00 0.00 0.00 75 1016.0
20260510072337 46 24 0.0 0.9 0.00 0.00 0.00 74 1016.0
20260510071836 46 4 0.0 0.9 0.00 0.00 0.00 75 1016.0
20260510071336 46 4 0.0 0.0 0.00 0.00 0.00 76 1016.0
20260510070836 45 4 0.0 0.9 0.00 0.00 0.00 76 1016.0
20260510070336 45 7 0.0 0.0 0.00 0.00 0.00 76 1016.0
20260510065836 45 7 0.0 0.9 0.00 0.00 0.00 76 1016.0
20260510065338 45 7 0.0 0.0 0.00 0.00 0.00 78 1016.0
20260510064836 45 7 0.0 0.0 0.00 0.00 0.00 78 1016.0
20260510064336 45 7 0.0 0.9 0.00 0.00 0.00 77 1016.0
20260510063837 44 7 0.0 0.0 0.00 0.00 0.00 78 1016.0
20260510063337 44 7 0.0 0.9 0.00 0.00 0.00 79 1016.0
20260510062836 44 8 0.0 0.0 0.00 0.00 0.00 79 1016.0
20260510062337 44 8 0.0 0.0 0.00 0.00 0.00 79 1016.0
20260510061836 44 8 0.0 0.0 0.00 0.00 0.00 80 1016.0
20260510061336 44 8 0.0 0.9 0.00 0.00 0.00 80 1016.0
20260510060836 44 8 0.0 0.0 0.00 0.00 0.00 80 1016.0
20260510060336 44 8 0.0 0.0 0.00 0.00 0.00 80 1016.0
20260510055836 44 8 0.0 0.9 0.00 0.00 0.00 80 1016.0
20260510055336 44 8 0.0 0.9 0.00 0.00 0.00 81 1016.0
20260510054836 44 8 0.0 0.0 0.00 0.00 0.00 82 1016.0
20260510054337 43 8 0.0 0.0 0.00 0.00 0.00 82 1016.0
20260510053836 43 8 0.0 0.0 0.00 0.00 0.00 83 1016.0
20260510053337 43 8 0.0 0.9 0.00 0.00 0.00 83 1016.0
20260510052836 43 8 0.0 0.0 0.00 0.00 0.00 84 1016.0
20260510052337 43 8 0.0 0.9 0.00 0.00 0.00 84 1016.0
20260510051836 43 8 0.0 0.0 0.00 0.00 0.00 85 1016.0
20260510051336 43 8 0.0 0.9 0.00 0.00 0.00 84 1016.0
20260510050837 43 8 0.0 0.0 0.00 0.00 0.00 84 1016.0
20260510050336 43 8 0.0 0.0 0.00 0.00 0.00 84 1016.0
20260510045837 43 8 0.0 0.0 0.00 0.00 0.00 84 1016.0
20260510045336 43 8 0.0 0.0 0.00 0.00 0.00 83 1016.0
20260510044836 43 8 0.0 0.0 0.00 0.00 0.00 83 1016.0
20260510044336 43 8 0.0 0.0 0.00 0.00 0.00 83 1016.0
20260510043836 43 8 0.0 0.0 0.00 0.00 0.00 83 1016.0
20260510043337 43 8 0.0 0.0 0.00 0.00 0.00 83 1016.0
20260510042836 43 8 0.0 0.0 0.00 0.00 0.00 83 1016.0
20260510042337 43 8 0.0 0.0 0.00 0.00 0.00 83 1016.0
20260510041837 43 8 0.0 0.0 0.00 0.00 0.00 83 1016.0
20260510041336 43 8 0.0 0.0 0.00 0.00 0.00 83 1016.0
20260510040836 43 8 0.0 0.0 0.00 0.00 0.00 83 1016.0
20260510040336 43 8 0.0 0.0 0.00 0.00 0.00 83 1016.0
20260510035838 43 8 0.0 0.0 0.00 0.00 0.00 83 1016.0
20260510035336 43 8 0.0 0.0 0.00 0.00 0.00 83 1016.0
20260510034837 43 8 0.0 0.0 0.00 0.00 0.00 83 1016.0
20260510034336 43 8 0.0 0.0 0.00 0.00 0.00 83 1016.0
20260510033836 44 8 0.0 0.9 0.00 0.00 0.00 83 1016.0
20260510033336 44 8 0.0 0.9 0.00 0.00 0.00 83 1016.0
20260510032836 44 8 0.0 0.0 0.00 0.00 0.00 83 1016.0
20260510032336 44 8 0.0 0.0 0.00 0.00 0.00 83 1016.0
20260510031836 44 8 0.0 0.0 0.00 0.00 0.00 83 1016.0
20260510031336 44 8 0.0 0.0 0.00 0.00 0.00 83 1016.0
20260510030836 44 8 0.0 0.9 0.00 0.00 0.00 83 1016.0
20260510030336 44 8 0.0 0.0 0.00 0.00 0.00 83 1016.0
20260510025837 44 8 0.0 0.0 0.00 0.00 0.00 83 1016.0
20260510025336 44 8 0.0 0.0 0.00 0.00 0.00 83 1016.0
20260510024836 44 8 0.0 0.0 0.00 0.00 0.00 83 1016.0
20260510024336 44 8 0.0 0.9 0.00 0.00 0.00 84 1016.0
20260510023836 44 8 0.0 0.0 0.00 0.00 0.00 84 1016.0
20260510023336 44 10 0.0 0.0 0.00 0.00 0.00 84 1016.0
20260510022836 44 10 0.0 0.0 0.00 0.00 0.00 83 1016.0
20260510022336 44 10 0.0 0.0 0.00 0.00 0.00 83 1016.0
20260510021836 44 10 0.0 0.0 0.00 0.00 0.00 83 1016.0
20260510021336 44 10 0.0 0.0 0.00 0.00 0.00 83 1016.0
20260510020836 44 10 0.0 0.0 0.00 0.00 0.00 83 1016.0
20260510020336 44 10 0.0 0.0 0.00 0.00 0.00 83 1016.0
20260510015836 44 10 0.0 0.0 0.00 0.00 0.00 83 1016.0
20260510015336 44 10 0.0 0.0 0.00 0.00 0.00 82 1016.0
20260510014836 45 10 0.0 0.0 0.00 0.00 0.00 82 1016.0
20260510014336 45 10 0.0 0.0 0.00 0.00 0.00 82 1016.0
20260510013837 45 10 0.0 0.0 0.00 0.00 0.00 82 1016.0
20260510013337 45 10 0.0 0.0 0.00 0.00 0.00 81 1016.0
20260510012837 45 10 0.0 0.0 0.00 0.00 0.00 81 1016.0
20260510012336 45 10 0.0 0.0 0.00 0.00 0.00 81 1016.0
20260510011837 46 10 0.0 0.0 0.00 0.00 0.00 81 1016.0
20260510011337 46 10 0.0 0.0 0.00 0.00 0.00 80 1016.0
20260510010836 46 10 0.0 0.0 0.00 0.00 0.00 80 1016.0
20260510010336 46 10 0.0 0.0 0.00 0.00 0.00 80 1016.0
20260510005836 46 10 0.0 0.0 0.00 0.00 0.00 79 1016.0
20260510005336 46 10 0.0 0.0 0.00 0.00 0.00 79 1016.0
20260510004836 46 10 0.0 0.9 0.00 0.00 0.00 78 1016.0
20260510004336 46 10 0.0 0.0 0.00 0.00 0.00 78 1016.0
20260510003836 47 10 0.0 0.0 0.00 0.00 0.00 78 1016.0
20260510003336 47 10 0.0 0.0 0.00 0.00 0.00 78 1016.0
20260510002836 47 10 0.9 0.9 0.00 0.00 0.00 77 1016.0
20260510002337 47 10 0.0 0.9 0.00 0.00 0.00 77 1016.0
20260510001836 47 10 0.0 0.0 0.00 0.00 0.00 77 1016.0
20260510001337 47 10 0.0 0.0 0.00 0.00 0.00 77 1016.0
20260510000838 47 10 0.0 0.9 0.00 0.00 0.00 76 1016.0
20260510000336 47 9 0.9 0.9 0.00 0.00 0.00 77 1016.0
20260509235836 47 9 0.0 0.9 0.00 0.00 0.10 76 1016.0
20260509235336 47 9 0.0 0.0 0.00 0.00 0.10 76 1016.0
20260509234836 48 25 0.0 0.0 0.00 0.00 0.10 76 1016.0
20260509234336 48 25 0.0 0.9 0.00 0.00 0.10 76 1016.0
20260509233837 48 25 0.0 0.9 0.00 0.00 0.10 76 1016.0
20260509233336 48 66 0.0 0.0 0.00 0.00 0.10 77 1016.0
20260509232836 48 66 0.0 0.0 0.00 0.00 0.10 77 1016.0
20260509232337 48 66 0.0 0.0 0.00 0.00 0.10 77 1016.0
20260509231836 48 66 0.0 0.9 0.00 0.00 0.10 77 1016.0
20260509231336 48 66 0.0 0.0 0.00 0.00 0.10 77 1016.0
20260509230836 48 66 0.9 0.9 0.00 0.00 0.10 76 1016.0
20260509230336 48 66 0.0 0.0 0.00 0.00 0.10 77 1016.0
20260509225836 48 66 0.0 0.9 0.00 0.00 0.10 76 1016.0
20260509225336 48 72 0.9 0.9 0.00 0.00 0.10 77 1016.0
20260509224836 48 72 0.0 0.0 0.00 0.00 0.10 77 1016.0
20260509224336 48 73 0.0 0.0 0.00 0.00 0.10 77 1016.0
20260509223836 48 73 0.0 0.9 0.00 0.00 0.10 77 1016.0
20260509223336 48 73 0.0 0.9 0.00 0.00 0.10 77 1016.0
20260509222836 48 73 0.0 0.9 0.00 0.00 0.10 76 1016.0
20260509222336 48 43 0.9 0.9 0.00 0.00 0.10 76 1016.0
20260509221836 48 42 0.0 0.9 0.00 0.00 0.10 76 1016.0
20260509221336 48 43 0.9 0.9 0.00 0.00 0.10 76 1016.0
20260509220836 48 41 0.9 0.9 0.00 0.00 0.10 76 1016.0
20260509220337 48 40 0.0 0.9 0.00 0.00 0.10 77 1016.0
20260509215837 48 40 0.0 0.9 0.00 0.00 0.10 77 1016.0
20260509215337 48 43 0.9 0.9 0.00 0.00 0.10 77 1016.0
20260509214837 48 43 0.0 0.0 0.00 0.00 0.10 77 1016.0